User: anonymous   Login
Location: Darlington Observatory
(36.4817°N, 105.8156°W)
Time: 19:03:49
(UTC-07:00)
Language:

Cosmos 2278 Rocket - Orbit

View from above orbital plane
View from above orbital plane
View from above satellite
View from above satellite

Ground track
Ground track

The orbit data is extracted from the following two-line orbital elements,

1 23088U 94023B   18050.61478633 -.00000260 +00000-0 -11027-3 0  9995
2 23088 070.9999 122.7434 0000900 072.5917 287.5304 14.14662208230265
Epoch (UTC): 19 February 2018 14:45:17
Eccentricity: 0.0000900
inclination: 70.9999°
perigee height: 843 km
apogee height: 844 km
right ascension of ascending node: 122.7434°
argument of perigee: 72.5917°
revolutions per day: 14.14662208
mean anomaly at epoch: 287.5304°
orbit number at epoch: 23026

The dashed part of the orbit path shows where the satellite is in the earth's shadow,  

DLR